User: anonymous   Login
Location: Unspecified
(0.0000°N, 0.0000°E)
Time: 13:17:33
(UTC+00:00)
Language:

NNS O-29 - Orbit

View from above orbital plane
View from above orbital plane
View from above satellite
View from above satellite

Ground track
Ground track

The orbit data is extracted from the following two-line orbital elements,

1 18362U 87080B   17086.77793184 +.00000041 +00000-0 +56105-4 0  9997
2 18362 090.3365 333.0534 0106318 351.0495 075.5703 13.44017359447644
Epoch (UTC): 27 March 2017 18:40:13
Eccentricity: 0.0106318
inclination: 90.3365°
perigee height: 1015 km
apogee height: 1174 km
right ascension of ascending node: 333.0534°
argument of perigee: 351.0495°
revolutions per day: 13.44017359
mean anomaly at epoch: 75.5703°
orbit number at epoch: 44764

The dashed part of the orbit path shows where the satellite is in the earth's shadow,  

DLR